| time (UTC) | temp F | wind direction | speed MPH | gust MPH | rain 1hr in | rain 24hr in | rain mn in | humidity % | barometer mb |
| 20260903235451 | 71 | 232 | 0.0 | 0.0 | 0.00 | 0.00 | 0.00 | 80 | 1009.9 |
| 20260903234948 | 71 | 232 | 0.0 | 0.0 | 0.00 | 0.00 | 0.00 | 80 | 1009.8 |
| 20260903234448 | 71 | 232 | 0.0 | 0.0 | 0.00 | 0.00 | 0.00 | 79 | 1009.8 |
| 20260903233953 | 71 | 232 | 0.0 | 0.0 | 0.00 | 0.00 | 0.00 | 77 | 1009.9 |
| 20260903233448 | 71 | 232 | 0.0 | 0.0 | 0.00 | 0.00 | 0.00 | 78 | 1009.8 |
| 20260903232947 | 72 | 232 | 0.0 | 0.0 | 0.00 | 0.00 | 0.00 | 78 | 1009.7 |
| 20260903232451 | 72 | 232 | 0.0 | 0.0 | 0.00 | 0.00 | 0.00 | 76 | 1009.8 |
| 20260903231947 | 72 | 232 | 0.0 | 0.0 | 0.00 | 0.00 | 0.00 | 76 | 1009.7 |
| 20260903231451 | 72 | 232 | 0.0 | 0.0 | 0.00 | 0.00 | 0.00 | 75 | 1009.9 |
| 20260903230954 | 73 | 232 | 0.0 | 0.0 | 0.00 | 0.00 | 0.00 | 75 | 1009.8 |
| 20260903230453 | 73 | 232 | 0.0 | 0.0 | 0.00 | 0.00 | 0.00 | 73 | 1009.9 |
| 20260903225951 | 73 | 232 | 0.0 | 0.0 | 0.00 | 0.00 | 0.00 | 72 | 1009.8 |
| 20260903225450 | 74 | 232 | 0.0 | 0.0 | 0.00 | 0.00 | 0.00 | 72 | 1009.6 |
| 20260903224948 | 74 | 232 | 0.0 | 0.0 | 0.00 | 0.00 | 0.00 | 73 | 1009.6 |
| 20260903224451 | 75 | 232 | 0.0 | 0.0 | 0.00 | 0.00 | 0.00 | 69 | 1009.9 |
| 20260903223947 | 75 | 232 | 0.0 | 0.0 | 0.00 | 0.00 | 0.00 | 68 | 1009.8 |
| 20260903223447 | 75 | 232 | 0.0 | 0.0 | 0.00 | 0.00 | 0.00 | 69 | 1009.7 |
| 20260903222947 | 76 | 232 | 0.0 | 0.0 | 0.00 | 0.00 | 0.00 | 69 | 1009.8 |
| 20260903222450 | 76 | 232 | 0.0 | 0.0 | 0.00 | 0.00 | 0.00 | 68 | 1009.9 |
| 20260903221947 | 76 | 232 | 0.0 | 0.0 | 0.00 | 0.00 | 0.00 | 68 | 1009.9 |
| 20260903221447 | 76 | 232 | 0.0 | 1.0 | 0.00 | 0.00 | 0.00 | 69 | 1009.9 |
| 20260903220947 | 76 | 232 | 0.0 | 1.0 | 0.00 | 0.00 | 0.00 | 69 | 1009.9 |
| 20260903220447 | 77 | 232 | 0.0 | 1.0 | 0.00 | 0.00 | 0.00 | 68 | 1009.9 |
| 20260903215947 | 77 | 232 | 0.0 | 1.0 | 0.00 | 0.00 | 0.00 | 69 | 1009.9 |
| 20260903215453 | 77 | 232 | 0.0 | 2.0 | 0.00 | 0.00 | 0.00 | 67 | 1010.0 |
| 20260903214950 | 78 | 232 | 0.0 | 3.0 | 0.00 | 0.00 | 0.00 | 65 | 1010.0 |
| 20260903214450 | 79 | 231 | 0.0 | 3.0 | 0.00 | 0.00 | 0.00 | 67 | 1009.8 |
| 20260903213950 | 80 | 232 | 0.0 | 4.0 | 0.00 | 0.00 | 0.00 | 64 | 1009.5 |
| 20260903213450 | 80 | 243 | 0.0 | 1.0 | 0.00 | 0.00 | 0.00 | 68 | 1009.6 |
| 20260903212947 | 80 | 243 | 0.0 | 1.0 | 0.00 | 0.00 | 0.00 | 67 | 1009.7 |
| 20260903212453 | 81 | 243 | 0.0 | 1.0 | 0.00 | 0.00 | 0.00 | 66 | 1009.7 |
| 20260903211947 | 81 | 243 | 0.0 | 3.0 | 0.00 | 0.00 | 0.00 | 66 | 1009.7 |
| 20260903211450 | 81 | 243 | 1.0 | 1.0 | 0.00 | 0.00 | 0.00 | 65 | 1009.6 |
| 20260903210950 | 81 | 243 | 0.0 | 2.0 | 0.00 | 0.00 | 0.00 | 65 | 1009.7 |
| 20260903210453 | 81 | 243 | 0.0 | 1.0 | 0.00 | 0.00 | 0.00 | 66 | 1009.6 |
| 20260903205950 | 81 | 243 | 0.0 | 1.0 | 0.00 | 0.00 | 0.00 | 66 | 1009.5 |
| 20260903205447 | 81 | 243 | 0.0 | 3.0 | 0.00 | 0.00 | 0.00 | 66 | 1009.5 |
| 20260903204951 | 81 | 243 | 0.0 | 2.0 | 0.00 | 0.00 | 0.00 | 67 | 1009.4 |
| 20260903204450 | 81 | 243 | 0.0 | 2.0 | 0.00 | 0.00 | 0.00 | 67 | 1009.4 |
| 20260903203953 | 81 | 243 | 3.0 | 3.0 | 0.00 | 0.00 | 0.00 | 66 | 1009.4 |
| 20260903203447 | 81 | 243 | 0.0 | 0.0 | 0.00 | 0.00 | 0.00 | 66 | 1009.4 |
| 20260903202953 | 81 | 243 | 0.0 | 0.0 | 0.00 | 0.00 | 0.00 | 66 | 1009.4 |
| 20260903202453 | 81 | 243 | 0.0 | 2.0 | 0.00 | 0.00 | 0.00 | 65 | 1009.5 |
| 20260903201947 | 81 | 243 | 1.0 | 2.0 | 0.00 | 0.00 | 0.00 | 66 | 1009.5 |
| 20260903201453 | 80 | 243 | 0.0 | 2.0 | 0.00 | 0.00 | 0.00 | 66 | 1009.5 |
| 20260903200947 | 80 | 243 | 0.0 | 1.0 | 0.00 | 0.00 | 0.00 | 66 | 1009.5 |
| 20260903200450 | 80 | 243 | 0.0 | 1.0 | 0.00 | 0.00 | 0.00 | 67 | 1009.5 |
| 20260903195950 | 80 | 243 | 0.0 | 2.0 | 0.00 | 0.00 | 0.00 | 65 | 1009.5 |
| 20260903195450 | 80 | 243 | 0.0 | 1.0 | 0.00 | 0.00 | 0.00 | 66 | 1009.5 |
| 20260903194947 | 80 | 243 | 0.0 | 3.0 | 0.00 | 0.00 | 0.00 | 64 | 1009.5 |
| 20260903194447 | 80 | 245 | 0.0 | 3.0 | 0.00 | 0.00 | 0.00 | 66 | 1009.6 |
| 20260903193950 | 80 | 165 | 0.0 | 0.0 | 0.00 | 0.00 | 0.00 | 68 | 1009.6 |
| 20260903193447 | 79 | 165 | 0.0 | 2.0 | 0.00 | 0.00 | 0.00 | 66 | 1009.6 |
| 20260903192950 | 79 | 236 | 0.0 | 1.0 | 0.00 | 0.00 | 0.00 | 68 | 1009.6 |
| 20260903192447 | 79 | 236 | 1.0 | 3.0 | 0.00 | 0.00 | 0.00 | 69 | 1009.7 |
| 20260903191950 | 79 | 292 | 0.0 | 2.0 | 0.00 | 0.00 | 0.00 | 71 | 1009.7 |
| 20260903191447 | 78 | 347 | 0.0 | 4.0 | 0.00 | 0.00 | 0.00 | 72 | 1009.8 |
| 20260903190946 | 78 | 210 | 1.0 | 3.0 | 0.00 | 0.00 | 0.00 | 71 | 1009.8 |
| 20260903190453 | 78 | 154 | 1.0 | 3.0 | 0.00 | 0.00 | 0.00 | 71 | 1009.8 |
| 20260903185946 | 77 | 245 | 0.0 | 4.0 | 0.00 | 0.00 | 0.00 | 73 | 1009.8 |
| 20260903185446 | 77 | 210 | 2.0 | 3.0 | 0.00 | 0.00 | 0.00 | 74 | 1009.8 |
| 20260903184946 | 77 | 117 | 0.0 | 4.0 | 0.00 | 0.00 | 0.00 | 76 | 1009.8 |
| 20260903184446 | 77 | 173 | 0.0 | 2.0 | 0.00 | 0.00 | 0.00 | 73 | 1009.8 |
| 20260903183949 | 77 | 173 | 0.0 | 3.0 | 0.00 | 0.00 | 0.00 | 72 | 1009.8 |
| 20260903183452 | 77 | 173 | 2.0 | 2.0 | 0.00 | 0.00 | 0.00 | 72 | 1009.9 |
| 20260903182952 | 77 | 173 | 0.0 | 2.0 | 0.00 | 0.00 | 0.00 | 74 | 1010.0 |
| 20260903182449 | 77 | 173 | 2.0 | 3.0 | 0.00 | 0.00 | 0.00 | 72 | 1010.1 |
| 20260903181952 | 77 | 117 | 0.0 | 3.0 | 0.00 | 0.00 | 0.00 | 72 | 1010.1 |
| 20260903181452 | 77 | 116 | 0.0 | 2.0 | 0.00 | 0.00 | 0.00 | 71 | 1010.1 |
| 20260903180949 | 76 | 117 | 0.0 | 3.0 | 0.00 | 0.00 | 0.00 | 73 | 1010.2 |
| 20260903180449 | 76 | 158 | 0.0 | 2.0 | 0.00 | 0.00 | 0.00 | 74 | 1010.2 |
| 20260903175956 | 76 | 158 | 0.0 | 3.0 | 0.00 | 0.00 | 0.00 | 75 | 1010.1 |
| 20260903175449 | 76 | 172 | 0.0 | 3.0 | 0.00 | 0.00 | 0.00 | 75 | 1010.2 |
| 20260903174949 | 75 | 135 | 1.0 | 2.0 | 0.00 | 0.00 | 0.00 | 76 | 1010.3 |
| 20260903174446 | 75 | 135 | 0.0 | 3.0 | 0.00 | 0.00 | 0.00 | 76 | 1010.3 |
| 20260903173946 | 75 | 135 | 0.0 | 3.0 | 0.00 | 0.00 | 0.00 | 76 | 1010.4 |
| 20260903173446 | 75 | 145 | 2.0 | 3.0 | 0.00 | 0.00 | 0.00 | 76 | 1010.5 |
| 20260903172946 | 75 | 143 | 0.0 | 4.0 | 0.00 | 0.00 | 0.00 | 76 | 1010.5 |
| 20260903172446 | 75 | 104 | 1.0 | 5.0 | 0.00 | 0.00 | 0.00 | 77 | 1010.5 |
| 20260903171949 | 74 | 173 | 1.0 | 6.0 | 0.00 | 0.00 | 0.00 | 77 | 1010.4 |
| 20260903171449 | 74 | 124 | 0.0 | 6.0 | 0.00 | 0.00 | 0.00 | 77 | 1010.5 |
| 20260903170949 | 74 | 133 | 0.0 | 2.0 | 0.00 | 0.00 | 0.00 | 79 | 1010.5 |
| 20260903170446 | 73 | 133 | 0.0 | 3.0 | 0.00 | 0.00 | 0.00 | 79 | 1010.4 |
| 20260903165953 | 73 | 160 | 2.0 | 3.0 | 0.00 | 0.00 | 0.00 | 78 | 1010.5 |
| 20260903165449 | 73 | 118 | 0.0 | 4.0 | 0.00 | 0.00 | 0.00 | 79 | 1010.5 |
| 20260903164946 | 73 | 174 | 1.0 | 5.0 | 0.00 | 0.00 | 0.00 | 78 | 1010.5 |
| 20260903164449 | 73 | 132 | 0.0 | 2.0 | 0.00 | 0.00 | 0.00 | 79 | 1010.5 |
| 20260903163952 | 73 | 146 | 0.0 | 6.0 | 0.00 | 0.00 | 0.00 | 78 | 1010.5 |
| 20260903163449 | 73 | 176 | 0.0 | 2.0 | 0.00 | 0.00 | 0.00 | 80 | 1010.5 |
| 20260903162946 | 72 | 176 | 0.0 | 3.0 | 0.00 | 0.00 | 0.00 | 79 | 1010.7 |
| 20260903162449 | 73 | 177 | 1.0 | 3.0 | 0.00 | 0.00 | 0.00 | 77 | 1010.7 |
| 20260903161952 | 73 | 113 | 0.0 | 4.0 | 0.00 | 0.00 | 0.00 | 78 | 1010.9 |
| 20260903161446 | 73 | 155 | 1.0 | 5.0 | 0.00 | 0.00 | 0.00 | 78 | 1010.8 |
| 20260903160952 | 73 | 101 | 1.0 | 4.0 | 0.00 | 0.00 | 0.00 | 77 | 1010.9 |
| 20260903160446 | 73 | 90 | 0.0 | 5.0 | 0.00 | 0.00 | 0.00 | 77 | 1010.9 |
| 20260903155952 | 74 | 93 | 0.0 | 2.0 | 0.00 | 0.00 | 0.00 | 76 | 1010.9 |
| 20260903155446 | 74 | 87 | 1.0 | 3.0 | 0.00 | 0.00 | 0.00 | 78 | 1010.9 |
| 20260903154949 | 73 | 101 | 0.0 | 2.0 | 0.00 | 0.00 | 0.00 | 78 | 1010.9 |
| 20260903154446 | 73 | 95 | 0.0 | 3.0 | 0.00 | 0.00 | 0.00 | 81 | 1011.0 |
| 20260903153945 | 72 | 316 | 0.0 | 3.0 | 0.00 | 0.00 | 0.00 | 80 | 1011.1 |
| 20260903153449 | 72 | 142 | 0.0 | 3.0 | 0.00 | 0.00 | 0.00 | 81 | 1011.2 |
| 20260903152951 | 72 | 147 | 1.0 | 4.0 | 0.00 | 0.00 | 0.00 | 83 | 1011.2 |
| 20260903152452 | 71 | 116 | 0.0 | 7.0 | 0.00 | 0.00 | 0.00 | 82 | 1011.3 |
| 20260903151945 | 71 | 135 | 0.0 | 3.0 | 0.00 | 0.00 | 0.00 | 84 | 1011.3 |
| 20260903151446 | 70 | 136 | 0.0 | 7.0 | 0.00 | 0.00 | 0.00 | 84 | 1011.4 |
| 20260903150946 | 70 | 117 | 3.0 | 3.0 | 0.00 | 0.00 | 0.00 | 85 | 1011.5 |
| 20260903150448 | 69 | 126 | 0.0 | 2.0 | 0.00 | 0.00 | 0.00 | 86 | 1011.5 |
| 20260903145952 | 69 | 125 | 2.0 | 3.0 | 0.00 | 0.00 | 0.00 | 85 | 1011.6 |
| 20260903145448 | 69 | 10 | 0.0 | 4.0 | 0.00 | 0.00 | 0.00 | 85 | 1011.7 |
| 20260903144945 | 68 | 112 | 4.0 | 6.0 | 0.00 | 0.00 | 0.00 | 86 | 1011.7 |
| 20260903144445 | 68 | 128 | 1.0 | 4.0 | 0.00 | 0.00 | 0.00 | 87 | 1011.7 |
| 20260903143948 | 68 | 152 | 2.0 | 2.0 | 0.00 | 0.00 | 0.00 | 87 | 1011.7 |
| 20260903143448 | 67 | 152 | 0.0 | 2.0 | 0.00 | 0.00 | 0.00 | 87 | 1011.6 |
| 20260903142945 | 67 | 121 | 0.0 | 8.0 | 0.00 | 0.00 | 0.00 | 88 | 1011.7 |
| 20260903142451 | 67 | 147 | 1.0 | 8.0 | 0.00 | 0.00 | 0.00 | 89 | 1011.8 |
| 20260903141948 | 66 | 121 | 1.0 | 3.0 | 0.00 | 0.00 | 0.00 | 89 | 1011.9 |
| 20260903141445 | 66 | 132 | 0.0 | 1.0 | 0.00 | 0.00 | 0.00 | 90 | 1011.8 |
| 20260903140949 | 66 | 132 | 0.0 | 2.0 | 0.00 | 0.00 | 0.00 | 90 | 1011.8 |
| 20260903140451 | 66 | 114 | 0.0 | 2.0 | 0.00 | 0.00 | 0.00 | 90 | 1011.8 |
| 20260903135948 | 66 | 113 | 0.0 | 2.0 | 0.00 | 0.00 | 0.00 | 91 | 1011.8 |
| 20260903135448 | 65 | 114 | 0.0 | 6.0 | 0.00 | 0.00 | 0.00 | 90 | 1011.7 |
| 20260903134948 | 65 | 110 | 0.0 | 1.0 | 0.00 | 0.00 | 0.00 | 90 | 1011.8 |
| 20260903134446 | 65 | 110 | 0.0 | 1.0 | 0.00 | 0.00 | 0.00 | 90 | 1011.7 |
| 20260903133948 | 65 | 110 | 0.0 | 0.0 | 0.00 | 0.00 | 0.00 | 90 | 1011.8 |
| 20260903133445 | 65 | 110 | 0.0 | 1.0 | 0.00 | 0.00 | 0.00 | 90 | 1011.7 |
| 20260903132954 | 65 | 110 | 0.0 | 0.0 | 0.00 | 0.00 | 0.00 | 90 | 1011.8 |
| 20260903132445 | 65 | 110 | 0.0 | 2.0 | 0.00 | 0.00 | 0.00 | 90 | 1011.7 |
| 20260903131948 | 65 | 110 | 0.0 | 0.0 | 0.00 | 0.00 | 0.00 | 90 | 1011.6 |
| 20260903131452 | 65 | 110 | 0.0 | 4.0 | 0.00 | 0.00 | 0.00 | 89 | 1011.6 |
| 20260903130948 | 65 | 126 | 1.0 | 3.0 | 0.00 | 0.00 | 0.00 | 89 | 1011.7 |
| 20260903130451 | 65 | 126 | 0.0 | 0.0 | 0.00 | 0.00 | 0.00 | 89 | 1011.7 |
| 20260903125949 | 65 | 126 | 0.0 | 1.0 | 0.00 | 0.00 | 0.00 | 89 | 1011.7 |
| 20260903125449 | 65 | 126 | 0.0 | 1.0 | 0.00 | 0.00 | 0.00 | 90 | 1011.7 |
| 20260903124945 | 65 | 126 | 0.0 | 2.0 | 0.00 | 0.00 | 0.00 | 90 | 1011.6 |
| 20260903124448 | 65 | 128 | 0.0 | 4.0 | 0.00 | 0.00 | 0.00 | 89 | 1011.7 |
| 20260903123948 | 65 | 120 | 0.0 | 3.0 | 0.00 | 0.00 | 0.00 | 90 | 1011.8 |
| 20260903123445 | 65 | 120 | 0.0 | 4.0 | 0.00 | 0.00 | 0.00 | 90 | 1011.8 |
| 20260903122945 | 64 | 139 | 0.0 | 2.0 | 0.00 | 0.00 | 0.00 | 90 | 1012.0 |
| 20260903122448 | 64 | 139 | 0.0 | 2.0 | 0.00 | 0.00 | 0.00 | 90 | 1011.9 |
| 20260903121951 | 64 | 139 | 0.0 | 1.0 | 0.00 | 0.00 | 0.00 | 90 | 1011.8 |
| 20260903121445 | 64 | 139 | 0.0 | 6.0 | 0.00 | 0.00 | 0.00 | 90 | 1011.8 |
| 20260903120948 | 64 | 143 | 1.0 | 5.0 | 0.00 | 0.00 | 0.00 | 90 | 1011.9 |
| 20260903120448 | 64 | 122 | 1.0 | 5.0 | 0.00 | 0.00 | 0.00 | 90 | 1012.0 |
| 20260903115945 | 64 | 136 | 0.0 | 1.0 | 0.00 | 0.00 | 0.00 | 91 | 1012.0 |
| 20260903115448 | 64 | 136 | 0.0 | 0.0 | 0.00 | 0.00 | 0.00 | 91 | 1012.0 |
| 20260903114945 | 64 | 136 | 0.0 | 2.0 | 0.00 | 0.00 | 0.00 | 91 | 1012.0 |
| 20260903114451 | 64 | 136 | 2.0 | 5.0 | 0.00 | 0.00 | 0.00 | 90 | 1012.1 |
| 20260903113948 | 63 | 94 | 0.0 | 5.0 | 0.00 | 0.00 | 0.00 | 90 | 1012.2 |
| 20260903113445 | 63 | 165 | 1.0 | 5.0 | 0.00 | 0.00 | 0.00 | 90 | 1012.1 |
| 20260903112948 | 64 | 98 | 5.0 | 5.0 | 0.00 | 0.00 | 0.00 | 90 | 1012.0 |
| 20260903112451 | 64 | 86 | 0.0 | 1.0 | 0.00 | 0.00 | 0.00 | 90 | 1012.0 |
| 20260903111948 | 63 | 86 | 0.0 | 1.0 | 0.00 | 0.00 | 0.00 | 90 | 1012.1 |
| 20260903111447 | 63 | 85 | 0.0 | 5.0 | 0.00 | 0.00 | 0.00 | 90 | 1011.9 |
| 20260903110945 | 63 | 356 | 0.0 | 4.0 | 0.00 | 0.00 | 0.00 | 90 | 1011.9 |
| 20260903110447 | 63 | 120 | 1.0 | 3.0 | 0.00 | 0.00 | 0.00 | 90 | 1012.0 |
| 20260903105944 | 63 | 120 | 2.0 | 4.0 | 0.00 | 0.00 | 0.00 | 90 | 1011.9 |
| 20260903105447 | 63 | 118 | 0.0 | 3.0 | 0.00 | 0.00 | 0.00 | 90 | 1011.8 |
| 20260903104947 | 63 | 127 | 0.0 | 4.0 | 0.00 | 0.00 | 0.00 | 90 | 1011.8 |
| 20260903104444 | 63 | 124 | 0.0 | 8.0 | 0.00 | 0.00 | 0.00 | 90 | 1011.7 |
| 20260903103951 | 63 | 137 | 0.0 | 6.0 | 0.00 | 0.00 | 0.00 | 90 | 1011.7 |
| 20260903103444 | 63 | 99 | 3.0 | 4.0 | 0.00 | 0.00 | 0.00 | 90 | 1011.6 |
| 20260903102944 | 63 | 126 | 0.0 | 6.0 | 0.00 | 0.00 | 0.00 | 90 | 1011.6 |
| 20260903102447 | 63 | 97 | 0.0 | 3.0 | 0.00 | 0.00 | 0.00 | 90 | 1011.6 |
| 20260903101950 | 63 | 98 | 0.0 | 8.0 | 0.00 | 0.00 | 0.00 | 90 | 1011.5 |
| 20260903101444 | 63 | 133 | 0.0 | 1.0 | 0.00 | 0.00 | 0.00 | 90 | 1011.5 |
| 20260903100950 | 63 | 133 | 0.0 | 2.0 | 0.00 | 0.00 | 0.00 | 90 | 1011.5 |
| 20260903100450 | 63 | 133 | 0.0 | 3.0 | 0.00 | 0.00 | 0.00 | 90 | 1011.3 |
| 20260903095944 | 63 | 133 | 2.0 | 9.0 | 0.00 | 0.00 | 0.00 | 90 | 1011.3 |
| 20260903095444 | 63 | 132 | 3.0 | 9.0 | 0.00 | 0.00 | 0.00 | 90 | 1011.3 |
| 20260903094953 | 63 | 191 | 0.0 | 5.0 | 0.00 | 0.00 | 0.00 | 91 | 1011.4 |
| 20260903094444 | 62 | 146 | 0.0 | 6.0 | 0.00 | 0.00 | 0.00 | 91 | 1011.4 |
| 20260903093944 | 62 | 163 | 2.0 | 8.0 | 0.00 | 0.00 | 0.00 | 91 | 1011.5 |
| 20260903093447 | 62 | 190 | 3.0 | 4.0 | 0.00 | 0.00 | 0.00 | 91 | 1011.6 |
| 20260903092944 | 62 | 190 | 0.0 | 4.0 | 0.00 | 0.00 | 0.00 | 91 | 1011.5 |
| 20260903092450 | 62 | 119 | 1.0 | 6.0 | 0.00 | 0.00 | 0.00 | 91 | 1011.6 |
| 20260903091944 | 62 | 99 | 0.0 | 1.0 | 0.00 | 0.00 | 0.00 | 91 | 1011.6 |
| 20260903091447 | 62 | 99 | 0.0 | 4.0 | 0.00 | 0.00 | 0.00 | 91 | 1011.5 |
| 20260903090944 | 62 | 120 | 1.0 | 5.0 | 0.00 | 0.00 | 0.00 | 92 | 1011.4 |
| 20260903090444 | 62 | 127 | 0.0 | 3.0 | 0.00 | 0.00 | 0.00 | 92 | 1011.5 |
| 20260903085953 | 62 | 127 | 0.0 | 4.0 | 0.00 | 0.00 | 0.00 | 92 | 1011.6 |
| 20260903085450 | 62 | 133 | 0.0 | 3.0 | 0.00 | 0.00 | 0.00 | 91 | 1011.5 |
| 20260903084944 | 62 | 139 | 1.0 | 5.0 | 0.00 | 0.00 | 0.00 | 91 | 1011.7 |
| 20260903084450 | 61 | 140 | 0.0 | 1.0 | 0.00 | 0.00 | 0.00 | 92 | 1011.6 |
| 20260903083947 | 61 | 140 | 0.0 | 2.0 | 0.00 | 0.00 | 0.00 | 92 | 1011.6 |
| 20260903083447 | 61 | 140 | 0.0 | 4.0 | 0.00 | 0.00 | 0.00 | 92 | 1011.7 |
| 20260903082944 | 61 | 123 | 0.0 | 4.0 | 0.00 | 0.00 | 0.00 | 92 | 1011.8 |
| 20260903082451 | 61 | 118 | 1.0 | 9.0 | 0.00 | 0.00 | 0.00 | 92 | 1011.8 |
| 20260903081944 | 61 | 124 | 0.0 | 2.0 | 0.00 | 0.00 | 0.00 | 92 | 1012.0 |
| 20260903081450 | 61 | 124 | 0.0 | 2.0 | 0.00 | 0.00 | 0.00 | 92 | 1011.8 |
| 20260903080944 | 61 | 124 | 0.0 | 6.0 | 0.00 | 0.00 | 0.00 | 92 | 1011.9 |
| 20260903080447 | 61 | 121 | 0.0 | 1.0 | 0.00 | 0.00 | 0.00 | 92 | 1012.1 |
| 20260903075947 | 61 | 121 | 0.0 | 2.0 | 0.00 | 0.00 | 0.00 | 92 | 1012.2 |
| 20260903075447 | 61 | 121 | 0.0 | 1.0 | 0.00 | 0.00 | 0.00 | 92 | 1012.1 |
| 20260903074947 | 61 | 121 | 0.0 | 2.0 | 0.00 | 0.00 | 0.00 | 92 | 1012.1 |
| 20260903074447 | 61 | 121 | 2.0 | 3.0 | 0.00 | 0.00 | 0.00 | 92 | 1012.1 |
| 20260903073943 | 61 | 123 | 0.0 | 4.0 | 0.00 | 0.00 | 0.00 | 92 | 1012.2 |
| 20260903073446 | 61 | 124 | 0.0 | 2.0 | 0.00 | 0.00 | 0.00 | 92 | 1012.2 |
| 20260903072943 | 61 | 124 | 0.0 | 3.0 | 0.00 | 0.00 | 0.00 | 92 | 1012.2 |
| 20260903072450 | 61 | 146 | 0.0 | 4.0 | 0.00 | 0.00 | 0.00 | 91 | 1012.2 |
| 20260903071944 | 61 | 139 | 0.0 | 6.0 | 0.00 | 0.00 | 0.00 | 91 | 1012.2 |
| 20260903071446 | 61 | 119 | 0.0 | 8.0 | 0.00 | 0.00 | 0.00 | 91 | 1012.2 |
| 20260903070950 | 61 | 120 | 0.0 | 8.0 | 0.00 | 0.00 | 0.00 | 91 | 1012.2 |
| 20260903070444 | 61 | 136 | 0.0 | 2.0 | 0.00 | 0.00 | 0.00 | 91 | 1012.2 |
| 20260903065943 | 61 | 138 | 1.0 | 2.0 | 0.00 | 0.00 | 0.00 | 91 | 1012.3 |
| 20260903065443 | 61 | 138 | 0.0 | 2.0 | 0.00 | 0.00 | 0.00 | 91 | 1012.4 |
| 20260903064950 | 61 | 204 | 0.0 | 4.0 | 0.00 | 0.00 | 0.00 | 91 | 1012.3 |
| 20260903064443 | 61 | 108 | 0.0 | 3.0 | 0.00 | 0.00 | 0.00 | 91 | 1012.4 |
| 20260903063949 | 61 | 79 | 0.0 | 4.0 | 0.00 | 0.00 | 0.00 | 91 | 1012.3 |
| 20260903063446 | 61 | 9 | 0.0 | 2.0 | 0.00 | 0.00 | 0.00 | 91 | 1012.4 |
| 20260903062952 | 61 | 203 | 0.0 | 2.0 | 0.00 | 0.00 | 0.00 | 91 | 1012.6 |
| 20260903062446 | 61 | 203 | 0.0 | 1.0 | 0.00 | 0.00 | 0.00 | 91 | 1012.8 |
| 20260903061949 | 61 | 203 | 0.0 | 4.0 | 0.00 | 0.00 | 0.00 | 91 | 1012.6 |
| 20260903061443 | 61 | 199 | 0.0 | 1.0 | 0.00 | 0.00 | 0.00 | 91 | 1012.6 |
| 20260903060946 | 61 | 199 | 0.0 | 2.0 | 0.00 | 0.00 | 0.00 | 91 | 1012.6 |
| 20260903060449 | 61 | 199 | 0.0 | 1.0 | 0.00 | 0.00 | 0.00 | 90 | 1012.7 |
| 20260903055943 | 61 | 199 | 0.0 | 3.0 | 0.00 | 0.00 | 0.00 | 90 | 1012.7 |
| 20260903055443 | 61 | 109 | 0.0 | 1.0 | 0.00 | 0.00 | 0.00 | 90 | 1012.9 |
| 20260903054947 | 61 | 109 | 0.0 | 2.0 | 0.00 | 0.00 | 0.00 | 90 | 1012.9 |
| 20260903054449 | 62 | 109 | 0.0 | 2.0 | 0.00 | 0.00 | 0.00 | 90 | 1013.1 |
| 20260903053949 | 62 | 106 | 0.0 | 1.0 | 0.00 | 0.00 | 0.00 | 90 | 1013.0 |
| 20260903053443 | 62 | 106 | 0.0 | 2.0 | 0.00 | 0.00 | 0.00 | 90 | 1013.2 |
| 20260903052950 | 62 | 104 | 0.0 | 2.0 | 0.00 | 0.00 | 0.00 | 90 | 1013.4 |
| 20260903052452 | 62 | 104 | 1.0 | 4.0 | 0.00 | 0.00 | 0.00 | 90 | 1013.5 |
| 20260903051943 | 62 | 330 | 0.0 | 0.0 | 0.00 | 0.00 | 0.00 | 90 | 1013.5 |
| 20260903051446 | 62 | 330 | 0.0 | 1.0 | 0.00 | 0.00 | 0.00 | 90 | 1013.5 |
| 20260903050949 | 62 | 329 | 0.0 | 0.0 | 0.00 | 0.00 | 0.00 | 89 | 1013.5 |
| 20260903050443 | 62 | 330 | 0.0 | 0.0 | 0.00 | 0.00 | 0.00 | 89 | 1013.4 |
| 20260903045949 | 62 | 330 | 0.0 | 2.0 | 0.00 | 0.00 | 0.00 | 89 | 1013.1 |
| 20260903045446 | 62 | 125 | 1.0 | 1.0 | 0.00 | 0.00 | 0.00 | 88 | 1013.2 |
| 20260903044944 | 62 | 125 | 0.0 | 2.0 | 0.00 | 0.00 | 0.00 | 88 | 1013.2 |
| 20260903044446 | 63 | 125 | 0.0 | 1.0 | 0.00 | 0.00 | 0.00 | 87 | 1013.1 |
| 20260903043946 | 63 | 125 | 0.0 | 0.0 | 0.00 | 0.00 | 0.00 | 87 | 1013.4 |
| 20260903043443 | 63 | 125 | 0.0 | 0.0 | 0.00 | 0.00 | 0.00 | 86 | 1013.6 |
| 20260903042943 | 63 | 125 | 0.0 | 0.0 | 0.00 | 0.00 | 0.00 | 86 | 1013.7 |
| 20260903042443 | 64 | 125 | 0.0 | 0.0 | 0.00 | 0.00 | 0.00 | 85 | 1013.7 |
| 20260903041946 | 64 | 125 | 0.0 | 2.0 | 0.00 | 0.00 | 0.00 | 84 | 1013.8 |
| 20260903041443 | 64 | 126 | 2.0 | 3.0 | 0.00 | 0.00 | 0.00 | 84 | 1013.7 |
| 20260903040946 | 65 | 126 | 0.0 | 3.0 | 0.00 | 0.00 | 0.00 | 82 | 1013.7 |
| 20260903040449 | 65 | 115 | 0.0 | 4.0 | 0.00 | 0.00 | 0.00 | 81 | 1014.0 |
| 20260903035943 | 66 | 149 | 0.0 | 2.0 | 0.00 | 0.00 | 0.00 | 80 | 1013.9 |
| 20260903035443 | 66 | 149 | 0.0 | 3.0 | 0.00 | 0.00 | 0.00 | 79 | 1013.9 |
| 20260903034946 | 66 | 149 | 1.0 | 5.0 | 0.00 | 0.00 | 0.00 | 78 | 1013.8 |
| 20260903034443 | 66 | 177 | 0.0 | 6.0 | 0.00 | 0.00 | 0.00 | 77 | 1013.6 |
| 20260903033946 | 66 | 138 | 0.0 | 3.0 | 0.00 | 0.00 | 0.00 | 77 | 1013.5 |
| 20260903033443 | 66 | 124 | 0.0 | 3.0 | 0.00 | 0.00 | 0.00 | 76 | 1013.7 |
| 20260903032943 | 66 | 125 | 1.0 | 3.0 | 0.00 | 0.00 | 0.00 | 76 | 1013.6 |
| 20260903032443 | 66 | 137 | 0.0 | 1.0 | 0.00 | 0.00 | 0.00 | 77 | 1013.6 |
| 20260903031946 | 66 | 137 | 0.0 | 2.0 | 0.00 | 0.00 | 0.00 | 77 | 1013.5 |
| 20260903031449 | 66 | 137 | 0.0 | 3.0 | 0.00 | 0.00 | 0.00 | 76 | 1013.5 |
| 20260903030945 | 66 | 114 | 2.0 | 6.0 | 0.00 | 0.00 | 0.00 | 76 | 1013.6 |
| 20260903030449 | 66 | 87 | 0.0 | 5.0 | 0.00 | 0.00 | 0.00 | 76 | 1013.7 |
| 20260903025943 | 66 | 210 | 1.0 | 5.0 | 0.00 | 0.00 | 0.00 | 76 | 1013.7 |
| 20260903025442 | 66 | 129 | 0.0 | 6.0 | 0.00 | 0.00 | 0.00 | 76 | 1013.8 |
| 20260903024945 | 66 | 124 | 0.0 | 1.0 | 0.00 | 0.00 | 0.00 | 77 | 1014.0 |
| 20260903024445 | 66 | 124 | 0.0 | 2.0 | 0.00 | 0.00 | 0.00 | 77 | 1014.1 |
| 20260903023945 | 66 | 124 | 1.0 | 2.0 | 0.00 | 0.00 | 0.00 | 77 | 1014.1 |
| 20260903023445 | 66 | 124 | 0.0 | 1.0 | 0.00 | 0.00 | 0.00 | 77 | 1014.0 |
| 20260903022945 | 66 | 124 | 0.0 | 1.0 | 0.00 | 0.00 | 0.00 | 77 | 1014.1 |
| 20260903022442 | 67 | 124 | 0.0 | 2.0 | 0.00 | 0.00 | 0.00 | 77 | 1014.2 |
| 20260903021945 | 67 | 132 | 0.0 | 2.0 | 0.00 | 0.00 | 0.00 | 76 | 1014.2 |
| 20260903021448 | 67 | 133 | 1.0 | 2.0 | 0.00 | 0.00 | 0.00 | 76 | 1014.1 |
| 20260903020945 | 67 | 133 | 0.0 | 2.0 | 0.00 | 0.00 | 0.00 | 76 | 1014.2 |
| 20260903020442 | 67 | 133 | 1.0 | 4.0 | 0.00 | 0.00 | 0.00 | 75 | 1014.2 |
| 20260903015948 | 67 | 114 | 1.0 | 5.0 | 0.00 | 0.00 | 0.00 | 75 | 1014.3 |
| 20260903015443 | 67 | 143 | 0.0 | 2.0 | 0.00 | 0.00 | 0.00 | 75 | 1014.3 |
| 20260903014948 | 67 | 144 | 1.0 | 3.0 | 0.00 | 0.00 | 0.00 | 75 | 1014.3 |
| 20260903014451 | 67 | 145 | 0.0 | 2.0 | 0.00 | 0.00 | 0.00 | 75 | 1014.6 |
| 20260903013945 | 67 | 145 | 1.0 | 2.0 | 0.00 | 0.00 | 0.00 | 75 | 1014.7 |
| 20260903013442 | 67 | 145 | 0.0 | 2.0 | 0.00 | 0.00 | 0.00 | 75 | 1014.8 |
| 20260903012951 | 67 | 145 | 0.0 | 5.0 | 0.00 | 0.00 | 0.00 | 75 | 1014.8 |
| 20260903012445 | 67 | 174 | 0.0 | 3.0 | 0.00 | 0.00 | 0.00 | 75 | 1014.7 |
| 20260903011945 | 67 | 125 | 0.0 | 2.0 | 0.00 | 0.00 | 0.00 | 76 | 1014.7 |
| 20260903011442 | 67 | 127 | 0.0 | 4.0 | 0.00 | 0.00 | 0.00 | 76 | 1014.7 |
| 20260903010945 | 66 | 169 | 1.0 | 2.0 | 0.00 | 0.00 | 0.00 | 77 | 1014.7 |
| 20260903010445 | 66 | 169 | 0.0 | 6.0 | 0.00 | 0.00 | 0.00 | 78 | 1014.7 |
| 20260903005945 | 66 | 145 | 0.0 | 3.0 | 0.00 | 0.00 | 0.00 | 78 | 1014.7 |
| 20260903005442 | 66 | 145 | 0.0 | 0.0 | 0.00 | 0.00 | 0.00 | 78 | 1014.7 |
| 20260903004942 | 66 | 145 | 0.0 | 0.0 | 0.00 | 0.00 | 0.00 | 78 | 1014.5 |
| 20260903004446 | 66 | 145 | 0.0 | 1.0 | 0.00 | 0.00 | 0.00 | 78 | 1014.4 |
| 20260903003945 | 66 | 145 | 0.0 | 0.0 | 0.00 | 0.00 | 0.00 | 78 | 1014.5 |
| 20260903003442 | 66 | 145 | 0.0 | 2.0 | 0.00 | 0.00 | 0.00 | 77 | 1014.3 |
| 20260903002942 | 66 | 145 | 0.0 | 2.0 | 0.00 | 0.00 | 0.00 | 77 | 1014.4 |
| 20260903002442 | 66 | 107 | 0.0 | 1.0 | 0.00 | 0.00 | 0.00 | 77 | 1014.3 |
| 20260903001942 | 66 | 107 | 0.0 | 1.0 | 0.00 | 0.00 | 0.00 | 77 | 1014.3 |
| 20260903001451 | 66 | 107 | 0.0 | 1.0 | 0.00 | 0.00 | 0.00 | 77 | 1014.2 |
| 20260903000942 | 66 | 106 | 0.0 | 2.0 | 0.00 | 0.00 | 0.00 | 77 | 1014.1 |
| 20260903000447 | 66 | 114 | 0.0 | 3.0 | 0.00 | 0.00 | 0.00 | 77 | 1014.2 |
| 20260902235945 | 66 | 124 | 0.0 | 3.0 | 0.00 | 0.00 | 0.00 | 77 | 1014.4 |